Printer-friendly version

IAU Minor Planet Center

Minor Planet Center

MPEC 2000-T03: 2000 SY162

The following Minor Planet Electronic Circular may be linked-to from your own Web pages, but must not otherwise be redistributed electronically.


Read MPEC 2000-T02 Read MPEC 2000-T04


M.P.E.C. 2000-T03                                Issued 2000 Oct. 1, 21:23 UT

     The Minor Planet Electronic Circulars contain information on unusual
         minor planets and routine data on comets.  They are published
   on behalf of Commission 20 of the International Astronomical Union by the
          Minor Planet Center, Smithsonian Astrophysical Observatory,
                          Cambridge, MA 02138, U.S.A.

             Prepared using the Tamkin Foundation Computer Network

                              MPC@CFA.HARVARD.EDU
          URL http://cfa-www.harvard.edu/iau/mpc.html  ISSN 1523-6714

                                  2000 SY162

Observations:
     K00SG2Y* C2000 09 28.34255 02 43 45.80 +24 53 35.3          18.6        704
     K00SG2Y  C2000 09 28.35810 02 43 48.13 +24 53 30.0          19.2        704
     K00SG2Y  C2000 09 28.37468 02 43 50.70 +24 53 24.2          19.5        704
     K00SG2Y  C2000 09 28.38958 02 43 52.98 +24 53 18.4          19.4        704
     K00SG2Y  C2000 09 29.00343 02 45 33.09 +24 49 07.2                      557
     K00SG2Y  C2000 09 29.00571 02 45 33.47 +24 49 06.5                      557
     K00SG2Y  C2000 09 29.00799 02 45 33.83 +24 49 05.4                      557
     K00SG2Y  C2000 09 29.00826 02 45 33.86 +24 49 06.5          18.1 R      118
     K00SG2Y  C2000 09 29.01441 02 45 34.79 +24 49 04.0                      118
     K00SG2Y  C2000 09 29.05976 02 45 41.84 +24 48 45.3                      046
     K00SG2Y  C2000 09 29.06271 02 45 42.32 +24 48 44.2                      046
     K00SG2Y  C2000 09 29.06465 02 45 42.62 +24 48 43.1                      046
     K00SG2Y  C2000 09 29.06630 02 45 42.87 +24 48 42.3                      046
     K00SG2Y  C2000 09 29.06828 02 45 43.16 +24 48 41.7                      046
     K00SG2Y  C2000 09 29.28264 02 46 18.50 +24 47 16.7          19.0 R      850
     K00SG2Y  C2000 09 29.29861 02 46 21.01 +24 47 10.0          18.8 R      850
     K00SG2Y  C2000 09 29.31458 02 46 23.44 +24 47 02.6          18.8 R      850
     K00SG2Y  C2000 09 29.38986 02 46 35.43 +24 46 33.5                      711
     K00SG2Y  C2000 09 29.39606 02 46 36.37 +24 46 30.5                      711
     K00SG2Y  C2000 09 29.40266 02 46 37.39 +24 46 27.7                      711
     K00SG2Y  C2000 09 30.31007 02 49 05.46 +24 39 36.1          18.7        704
     K00SG2Y  C2000 09 30.32081 02 49 07.09 +24 39 30.4          19.2        704
     K00SG2Y  C2000 09 30.32658 02 49 08.02 +24 39 28.0          18.6        704
     K00SG2Y  C2000 09 30.33071 02 49 08.57 +24 39 25.6          18.1        704
     K00SG2Y  C2000 09 30.33655 02 49 09.49 +24 39 23.6          18.5        704
     K00SG2Y  C2000 09 30.34134 02 49 10.27 +24 39 20.9          18.2        704
     K00SG2Y  C2000 09 30.34542 02 49 10.80 +24 39 19.6          18.9        704
     K00SG2Y  C2000 09 30.35127 02 49 11.79 +24 39 16.2          18.6        704
     K00SG2Y  C2000 09 30.36041 02 49 13.16 +24 39 12.7          18.8        704
     K00SG2Y  C2000 09 30.36657 02 49 14.05 +24 39 09.5          19.1        704
     K00SG2Y  C2000 09 30.37544 02 49 15.40 +24 39 05.3          18.1        704
     K00SG2Y  C2000 09 30.37811 02 49 15.77 +24 39 05.3                      711
     K00SG2Y  C2000 09 30.38515 02 49 16.85 +24 39 01.9                      711
     K00SG2Y  C2000 09 30.38724 02 49 17.20 +24 38 59.6          18.2        704
     K00SG2Y  C2000 09 30.39041 02 49 17.67 +24 38 57.9          18.0        704
     K00SG2Y  C2000 09 30.39224 02 49 17.90 +24 38 58.5                      711
     K00SG2Y  C2000 09 30.40270 02 49 19.53 +24 38 52.5          18.7        704
     K00SG2Y  C2000 09 30.40381 02 49 19.88 +24 38 51.0          18.0 R      684
     K00SG2Y  C2000 09 30.40733 02 49 20.43 +24 38 49.4                      684
     K00SG2Y  C2000 09 30.80419 02 50 24.17 +24 35 33.8                      345
     K00SG2Y  C2000 09 30.81495 02 50 25.81 +24 35 27.9                      345
     K00SG2Y  C2000 09 30.81816 02 50 26.28 +24 35 26.3                      345
     K00SG2Y  C2000 09 30.82161 02 50 26.81 +24 35 24.5                      345
     K00SG2Y  C2000 10 01.34216 02 51 52.02 +24 30 58.7          18.3 R      858
     K00SG2Y  C2000 10 01.34572 02 51 52.57 +24 30 56.7          18.3 R      858
     K00SG2Y  C2000 10 01.34914 02 51 53.08 +24 30 55.3          18.2 R      858
     K00SG2Y  C2000 10 01.39635 02 52 00.17 +24 30 32.3                      711
     K00SG2Y IC2000 10 01.40368 02 52 01.27 +24 30 28.9                      711

Observer details:
046 Klet.  Observers J. Ticha, M. Tichy, M. Kocer, P. Jelinek.  0.57-m f/5.2
    reflector + CCD.
118 Modra.  Observers A. Galad, S. Gajdos.  0.6-m f/5.5 reflector + CCD.
345 Sobaeksan Optical Astronomy Observatory.  Observers J.-H. Youn, S.-L. Kim.
    0.61-m reflector + CCD.
557 Ondrejov.  Observers P. Pravec, P. Kusnirak.  0.65-m f/3.6 reflector + CCD.
684 Prescott.  Observer P. G. Comba.  0.46-m f/4.5 reflector + CCD.
704 Lincoln Laboratory ETS, New Mexico.  Observers M. Blythe, F. Shelly,
    M. Bezpalko, M. Elowitz, R. Huber, L. Manguso.  Measurers J. Stuart,
    R. Sayer, J. B. Evans, H. Viggh.  1.0-m f/2.15 reflector + CCD.
711 McDonald Observatory.  Observer J. G. Ries.  0.76-m reflector + CCD.
850 Cordell-Lorenz Observatory, Sewanee.  Observer D. T. Durig.  0.3-m f/5.75
    Schmidt-Cassegrain + CCD.
858 Tebbutt Observatory, Edgewood.  Observer F. B. Zoltowski.  0.3-m f/3.3
    Schmidt-Cassegrain + CCD.

Orbital elements:
2000 SY162
Epoch 2000 Sept. 13.0 TT = JDT 2451800.5                Spahr
M 348.07968              (2000.0)            P               Q
n   0.26212260     Peri.  187.18882     +0.75716259     -0.64881907
a   2.4180563      Node   213.65356     +0.60592253     +0.74092085
e   0.4798303      Incl.    7.85681     +0.24405473     +0.17340737
P   3.76           H   19.2           G   0.15
From 48 observations 2000 Sept. 28-Oct. 1.

Ephemeris:
2000 SY162               a,e,i = 2.42, 0.48, 8                   q = 1.2578
Date    TT    R. A. (2000) Decl.     Delta      r     Elong.  Phase     V
2000 09 23    02 29.24   +25 16.2    0.389    1.312   136.2    31.9    19.1
2000 10 03    02 56.31   +24 15.4    0.345    1.286   140.8    29.4    18.7
2000 10 13    03 22.14   +21 53.2    0.312    1.268   146.0    26.1    18.4
2000 10 23    03 44.85   +18 16.8    0.291    1.259   151.7    22.0    18.1
2000 11 02    04 02.77   +13 54.5    0.283    1.259   157.5    17.6    17.9
2000 11 12    04 15.56   +09 32.2    0.288    1.267   162.1    13.9    17.8
2000 11 22    04 23.93   +05 54.5    0.306    1.284   163.7    12.5    17.9
2000 12 02    04 29.47   +03 29.3    0.337    1.309   161.5    13.8    18.2
2000 12 12    04 34.18   +02 22.4    0.380    1.342   156.8    16.8    18.6
2000 12 22    04 39.50   +02 21.9    0.435    1.381   151.0    20.2    19.1
2001 01 01    04 46.36   +03 09.6    0.503    1.425   144.9    23.4    19.6
2001 01 11    04 55.25   +04 26.7    0.584    1.473   138.7    26.1    20.1
2001 01 21    05 06.10   +05 57.8    0.677    1.526   132.6    28.4    20.5
2001 01 31    05 18.78   +07 31.8    0.781    1.581   126.6    30.0    21.0
2001 02 10    05 33.04   +09 01.0    0.897    1.638   120.7    31.2    21.4

Timothy B. Spahr             (C) Copyright 2000 MPC           M.P.E.C. 2000-T03

Read MPEC 2000-T02 Read MPEC 2000-T04


Our Web policy. Index to the CBAT/MPC/ICQ pages.


Valid HTML 4.01!